CW7595 Weather Reports


Display with metric or nautical units.
time (UTC)temp
F
wind
direction
speed
MPH
gust
MPH
rain 1hr
in
rain 24hr
in
rain mn
in
humidity
%
barometer
mb
20260901003010 61 96 0.0 0.0 0.00 0.00 0.00 61 1015.4
20260901001511 61 96 0.0 0.0 0.00 0.00 0.00 63 1015.3
20260901000009 62 267 0.0 0.0 0.00 0.00 0.00 62 1015.3
20260831234509 63 267 0.0 0.0 0.00 0.00 0.00 60 1015.2
20260831233009 64 264 0.0 0.0 0.00 0.00 0.00 58 1015.2
20260831231507 65 290 0.0 0.0 0.00 0.00 0.00 57 1015.3
20260831230010 66 306 0.0 0.0 0.00 0.00 0.00 56 1015.3
20260831224507 67 355 0.0 3.0 0.00 0.00 0.00 54 1015.2
20260831223006 68 330 0.0 4.0 0.00 0.00 0.00 52 1015.0
20260831221505 68 323 0.0 7.0 0.00 0.00 0.00 50 1014.9
20260831220008 69 271 4.0 10.0 0.00 0.00 0.00 48 1014.8
20260831214505 69 290 2.0 6.0 0.00 0.00 0.00 48 1014.6
20260831213003 70 277 2.0 8.0 0.00 0.00 0.00 47 1014.5
20260831211503 70 317 0.0 9.0 0.00 0.00 0.00 50 1014.5
20260831210003 70 270 1.0 8.0 0.00 0.01 0.00 46 1014.4
20260831204503 71 313 0.0 7.0 0.00 0.01 0.00 49 1014.3
20260831203001 71 260 0.0 7.0 0.00 0.01 0.00 47 1014.3
20260831201503 73 257 1.0 7.0 0.00 0.01 0.00 47 1014.4
20260831200003 73 336 2.0 9.0 0.00 0.01 0.00 47 1014.4
20260831194502 73 296 0.0 10.0 0.00 0.01 0.00 46 1014.4
20260831193103 73 332 2.0 9.0 0.00 0.01 0.00 46 1014.6
20260831191559 74 281 1.0 8.0 0.00 0.01 0.00 46 1014.7
20260831190113 74 290 1.0 10.0 0.00 0.01 0.00 46 1014.6
20260831184606 74 292 2.0 10.0 0.00 0.01 0.00 45 1014.7
20260831183100 73 292 2.0 11.0 0.00 0.01 0.00 47 1014.8
20260831181601 73 360 1.0 8.0 0.00 0.01 0.00 47 1014.8
20260831180053 73 276 3.0 10.0 0.00 0.01 0.00 47 1014.9
20260831174552 73 240 2.0 14.0 0.00 0.01 0.00 49 1014.9
20260831173049 72 283 1.0 12.0 0.00 0.01 0.00 51 1014.8
20260831171548 72 317 1.0 8.0 0.00 0.01 0.00 50 1015.0
20260831170048 71 282 0.0 12.0 0.00 0.01 0.00 50 1014.9
20260831164554 70 288 1.0 8.0 0.00 0.01 0.00 54 1014.9
20260831163043 70 274 0.0 13.0 0.00 0.01 0.00 51 1014.9
20260831161540 69 309 3.0 9.0 0.00 0.01 0.00 56 1015.0
20260831160037 68 279 0.0 6.0 0.00 0.01 0.00 55 1015.1
20260831154535 67 266 0.0 9.0 0.00 0.01 0.00 61 1015.2
20260831153030 65 265 0.0 5.0 0.00 0.01 0.00 60 1015.4
20260831151527 64 274 1.0 8.0 0.00 0.01 0.00 61 1015.6
20260831150025 63 208 0.0 14.0 0.00 0.01 0.00 65 1015.8
20260831144531 62 273 1.0 12.0 0.00 0.01 0.00 64 1015.8
20260831143032 61 264 0.0 8.0 0.00 0.01 0.00 68 1015.9
20260831141540 60 344 0.0 7.0 0.00 0.01 0.00 67 1015.8
20260831140034 60 303 0.0 7.0 0.00 0.01 0.00 69 1015.8
20260831134512 59 295 0.0 9.0 0.00 0.01 0.00 70 1015.8
20260831133009 58 326 1.0 10.0 0.00 0.01 0.00 69 1015.8
20260831131507 57 289 1.0 9.0 0.00 0.01 0.00 70 1015.6
20260831130006 57 330 1.0 10.0 0.00 0.01 0.00 71 1015.6
20260831124504 56 263 1.0 11.0 0.00 0.01 0.00 74 1015.6
20260831123100 55 339 3.0 10.0 0.00 0.01 0.00 75 1015.6
20260831121556 54 273 1.0 8.0 0.00 0.01 0.00 77 1015.5
20260831120055 53 268 0.0 8.0 0.00 0.01 0.00 80 1015.5
20260831114553 51 244 1.0 5.0 0.00 0.01 0.00 81 1015.4
20260831113054 50 271 0.0 0.0 0.00 0.01 0.00 82 1015.2
20260831111550 50 277 0.0 2.0 0.00 0.01 0.00 82 1015.2
20260831110050 49 280 0.0 0.0 0.00 0.01 0.00 82 1015.0
20260831104548 49 279 0.0 0.0 0.00 0.01 0.00 82 1014.9
20260831103046 49 279 0.0 0.0 0.00 0.01 0.00 82 1014.8
20260831101556 49 279 0.0 0.0 0.00 0.01 0.00 81 1014.5
20260831100055 49 279 0.0 0.0 0.00 0.01 0.00 81 1014.4
20260831094542 49 280 0.0 0.0 0.00 0.01 0.00 81 1014.2
20260831093040 49 281 0.0 0.0 0.00 0.01 0.00 81 1014.1
20260831091540 49 227 0.0 4.0 0.00 0.01 0.00 81 1014.2
20260831090055 49 286 0.0 0.0 0.00 0.01 0.00 82 1014.1
20260831084538 49 284 0.0 0.0 0.00 0.01 0.00 82 1014.1
20260831083036 49 294 0.0 0.0 0.00 0.01 0.00 81 1014.0
20260831081534 49 294 0.0 2.0 0.00 0.01 0.00 81 1013.9
20260831080032 50 279 0.0 1.0 0.00 0.01 0.00 81 1013.9
20260831074533 50 304 0.0 0.0 0.00 0.01 0.00 81 1013.8
20260831073031 50 302 0.0 0.0 0.00 0.01 0.00 81 1013.7
20260831071528 50 275 0.0 0.0 0.00 0.01 0.00 80 1013.6
20260831070033 51 290 0.0 2.0 0.00 0.01 0.00 81 1013.7
20260831064525 51 304 0.0 6.0 0.00 0.01 0.00 81 1013.5
20260831063023 51 273 0.0 4.0 0.00 0.01 0.00 81 1013.5
20260831061521 51 290 0.0 4.0 0.00 0.01 0.00 81 1013.3
20260831060020 51 294 0.0 6.0 0.00 0.01 0.00 81 1013.1
20260831054518 51 302 0.0 3.0 0.00 0.01 0.00 81 1013.0
20260831053016 51 266 0.0 3.0 0.00 0.01 0.00 81 1012.9
20260831051523 52 297 0.0 1.0 0.00 0.01 0.00 81 1013.0
20260831050013 52 280 0.0 4.0 0.00 0.01 0.00 80 1012.9
20260831044512 52 279 0.0 0.0 0.00 0.01 0.00 80 1012.9
20260831043008 53 279 0.0 0.0 0.00 0.01 0.00 80 1012.8
20260831041511 53 283 0.0 4.0 0.00 0.01 0.00 80 1012.7
20260831040005 54 281 0.0 7.0 0.00 0.01 0.01 80 1012.6
20260831034506 54 303 0.0 4.0 0.00 0.01 0.01 80 1012.6
20260831033004 54 277 0.0 5.0 0.00 0.01 0.01 80 1012.4
20260831031501 54 304 0.0 6.0 0.00 0.01 0.01 80 1012.3
20260831030001 54 281 0.0 4.0 0.00 0.01 0.01 81 1012.2
20260831024638 55 295 0.0 6.0 0.00 0.01 0.01 81 1012.2
20260831023058 55 267 0.0 0.0 0.00 0.01 0.01 81 1012.1
20260831021556 56 297 0.0 6.0 0.00 0.01 0.01 80 1011.9
20260831020056 56 322 0.0 5.0 0.00 0.01 0.01 81 1011.9
20260831014554 56 300 1.0 5.0 0.00 0.01 0.01 80 1011.8
20260831013109 56 281 0.0 0.0 0.00 0.01 0.01 80 1011.7
20260831011551 57 304 0.0 5.0 0.00 0.01 0.01 80 1011.9
20260831010048 57 277 0.0 4.0 0.00 0.01 0.01 79 1011.7
20260831004547 58 242 0.0 4.0 0.00 0.01 0.01 78 1011.8